Location: Unspecified
(0.0000°N, 0.0000°E)
Time: 08:41:57
(UTC+00:00)

Vanguard 1 - Pass Details

Date: 20 December 2018
Orbit: 651 x 3832 km, 34.2° (Epoch: 22 March)

Event Time Altitude Azimuth Distance (km) Brightness Sun altitude
Rises 23:24:03 0° 225° (SW) 6,936 14.7 -65.2°
Reaches altitude 10° 23:29:43 10° 220° (SW) 5,413 14.0 -65.6°
Enters shadow 23:35:24 23° 209° (SSW) 3,829 13.1 -65.9°
